Location: Newark
(35.8833°N, 14.5000°E)
Time: 11:43:57
(UTC+00:00)

BEESAT - Pass Details

Date: 18 November 2019
Orbit: 700 x 709 km, 98.6° (Epoch: 10 December)

Event Time Altitude Azimuth Distance (km) Brightness Sun altitude
Rises 16:37:20 0° 11° (N) 3,094 ? -9.2°
Reaches altitude 10° 16:39:35 10° 10° (N) 2,173 ? -9.7°
Maximum altitude 16:44:20 77° 285° (WNW) 725 ? -10.6°
Drops below altitude 10° 16:49:04 10° 199° (SSW) 2,163 ? -11.5°
Sets 16:51:19 0° 198° (SSW) 3,079 ? -12.0°
